Voltar ao catálogo

THOR ABLESTAR DEB

AtivoLEO
NORAD 133·DEBRIS·🇺🇸 United States

Lançado Jun 29, 1961 de Cape Canaveral Space Force Station

Loading…

Próximas Passagens (próximas 24 horas)

TLE

AtualizadoSource: Space-Track

Época: Sep 6, 2026, 16:53 UTC

1 00133U 61015T   26249.70354442  .00000260  00000-0  14939-3 0  9999
2 00133  67.1162  12.3940 0044411  71.7568 288.8355 14.23134006345082

Acompanhe THOR ABLESTAR DEB em tempo real com AllMySat

Download on the App Store